EZY369U EGAE-EGPH

Flight info

Callsign EZY369U
Flight time 0h 34m
Altitude 23000
Route MAC N562 TRN DCT TLA
Aircraft A320/M-SDE3FGHIRWY/LB1

Departure

Time 2026-04-24 21:15
Airport City of Derry Airport (EGAE)

Arrival

Time 2026-04-24 21:49
Airport Edinburgh Airport (EGPH)
Time Latitude Longitude Altitude Speed Heading
2026-04-24 20:45 55.04010 -7.15745 31 ft 0 kts 167°
2026-04-24 21:05 55.04011 -7.15745 31 ft 0 kts 166°
2026-04-24 21:06 55.04012 -7.15746 31 ft 2 kts 166°
2026-04-24 21:06 55.04037 -7.15754 30 ft 4 kts 178°
2026-04-24 21:07 55.04063 -7.15750 29 ft 4 kts 202°
2026-04-24 21:07 55.04081 -7.15724 30 ft 3 kts 252°
2026-04-24 21:07 55.04083 -7.15718 30 ft 1 kts 256°
2026-04-24 21:10 55.04073 -7.15795 31 ft 10 kts 261°
2026-04-24 21:10 55.04104 -7.15878 31 ft 9 kts 344°
2026-04-24 21:10 55.04165 -7.15904 31 ft 9 kts 347°
2026-04-24 21:10 55.04229 -7.15930 31 ft 10 kts 347°
2026-04-24 21:11 55.04291 -7.15987 31 ft 11 kts 298°
2026-04-24 21:11 55.04281 -7.16122 30 ft 12 kts 253°
2026-04-24 21:11 55.04258 -7.16257 31 ft 11 kts 253°
2026-04-24 21:11 55.04232 -7.16408 30 ft 13 kts 253°
2026-04-24 21:12 55.04206 -7.16557 31 ft 13 kts 252°
2026-04-24 21:12 55.04180 -7.16705 34 ft 12 kts 253°
2026-04-24 21:12 55.04155 -7.16849 34 ft 13 kts 253°
2026-04-24 21:12 55.04129 -7.16995 33 ft 12 kts 252°
2026-04-24 21:13 55.04102 -7.17153 31 ft 18 kts 253°
2026-04-24 21:13 55.04061 -7.17385 31 ft 20 kts 253°
2026-04-24 21:13 55.04008 -7.17521 31 ft 11 kts 239°
2026-04-24 21:13 55.04007 -7.17636 29 ft 7 kts 346°
2026-04-24 21:14 55.04021 -7.17606 29 ft 0 kts 68°
2026-04-24 21:14 55.04040 -7.17500 31 ft 48 kts 72°
2026-04-24 21:15 55.04246 -7.16269 49 ft 155 kts 76°
2026-04-24 21:15 55.04548 -7.14432 1154 ft 155 kts 78°
2026-04-24 21:15 55.04785 -7.12715 2215 ft 144 kts 79°
2026-04-24 21:15 55.05175 -7.11009 2900 ft 162 kts 66°
2026-04-24 21:16 55.05719 -7.09118 3460 ft 188 kts 65°
2026-04-24 21:16 55.06351 -7.06950 4142 ft 213 kts 65°
2026-04-24 21:16 55.07053 -7.04500 4901 ft 238 kts 65°
2026-04-24 21:16 55.07817 -7.01773 5720 ft 261 kts 65°
2026-04-24 21:17 55.08624 -6.98849 6874 ft 269 kts 66°
2026-04-24 21:17 55.09430 -6.95875 8061 ft 275 kts 66°
2026-04-24 21:17 55.10242 -6.92833 9273 ft 280 kts 66°
2026-04-24 21:17 55.11068 -6.89706 10447 ft 287 kts 66°
2026-04-24 21:18 55.11939 -6.86396 11067 ft 313 kts 66°
2026-04-24 21:18 55.12875 -6.82831 11829 ft 329 kts 66°
2026-04-24 21:18 55.13841 -6.79154 12864 ft 335 kts 66°
2026-04-24 21:18 55.14821 -6.75421 13927 ft 340 kts 66°
2026-04-24 21:19 55.15814 -6.71630 14868 ft 345 kts 66°
2026-04-24 21:19 55.16820 -6.67776 15777 ft 351 kts 67°
2026-04-24 21:19 55.17839 -6.63868 16663 ft 357 kts 67°
2026-04-24 21:19 55.18862 -6.59940 17555 ft 362 kts 66°
2026-04-24 21:20 55.20984 -6.51775 19179 ft 374 kts 66°
2026-04-24 21:20 55.22065 -6.47599 19939 ft 379 kts 66°
2026-04-24 21:20 55.23156 -6.43374 20697 ft 384 kts 66°
2026-04-24 21:21 55.24264 -6.39081 21437 ft 389 kts 66°
2026-04-24 21:21 55.25384 -6.34729 22159 ft 394 kts 66°
2026-04-24 21:21 55.26516 -6.30318 22883 ft 399 kts 66°
2026-04-24 21:21 55.27654 -6.25864 23184 ft 402 kts 66°
2026-04-24 21:22 55.28792 -6.21400 23257 ft 397 kts 66°
2026-04-24 21:22 55.29914 -6.17001 23245 ft 393 kts 66°
2026-04-24 21:22 55.31033 -6.12611 23245 ft 393 kts 66°
2026-04-24 21:22 55.32143 -6.08245 23246 ft 392 kts 66°
2026-04-24 21:23 55.33253 -6.03866 23251 ft 392 kts 66°
2026-04-24 21:23 55.34358 -5.99498 23256 ft 392 kts 66°
2026-04-24 21:23 55.35464 -5.95114 23255 ft 392 kts 66°
2026-04-24 21:23 55.36555 -5.90789 23254 ft 392 kts 66°
2026-04-24 21:24 55.37674 -5.86346 23261 ft 392 kts 66°
2026-04-24 21:24 55.38760 -5.82026 23264 ft 392 kts 66°
2026-04-24 21:24 55.39866 -5.77618 23243 ft 393 kts 66°
2026-04-24 21:24 55.40963 -5.73227 23245 ft 393 kts 67°
2026-04-24 21:25 55.41868 -5.68697 23244 ft 392 kts 77°
2026-04-24 21:25 55.42276 -5.63956 23245 ft 392 kts 88°
2026-04-24 21:25 55.42171 -5.59184 23245 ft 391 kts 99°
2026-04-24 21:25 55.41621 -5.54507 23245 ft 390 kts 104°
2026-04-24 21:26 55.41003 -5.49850 23243 ft 391 kts 104°
2026-04-24 21:26 55.40389 -5.45194 23243 ft 391 kts 104°
2026-04-24 21:26 55.39773 -5.40530 23243 ft 391 kts 103°
2026-04-24 21:26 55.39155 -5.35868 23246 ft 391 kts 103°
2026-04-24 21:27 55.38539 -5.31218 23260 ft 391 kts 104°
2026-04-24 21:27 55.37917 -5.26548 23254 ft 391 kts 104°
2026-04-24 21:27 55.37291 -5.21893 23266 ft 391 kts 104°
2026-04-24 21:27 55.36658 -5.17228 23266 ft 391 kts 104°
2026-04-24 21:28 55.36024 -5.12580 23258 ft 391 kts 104°
2026-04-24 21:28 55.35388 -5.07942 23259 ft 391 kts 104°
2026-04-24 21:28 55.34752 -5.03295 23258 ft 391 kts 104°
2026-04-24 21:28 55.34117 -4.98644 23255 ft 391 kts 104°
2026-04-24 21:29 55.33485 -4.94011 23259 ft 391 kts 104°
2026-04-24 21:29 55.32849 -4.89358 23253 ft 392 kts 104°
2026-04-24 21:29 55.32213 -4.84707 23249 ft 392 kts 103°
2026-04-24 21:29 55.31802 -4.80049 23254 ft 392 kts 94°
2026-04-24 21:30 55.31870 -4.75269 23250 ft 392 kts 83°
2026-04-24 21:30 55.32400 -4.70589 23244 ft 392 kts 76°
2026-04-24 21:30 55.33043 -4.65934 23262 ft 392 kts 76°
2026-04-24 21:30 55.33676 -4.61267 23261 ft 392 kts 76°
2026-04-24 21:31 55.34301 -4.56602 23273 ft 392 kts 77°
2026-04-24 21:31 55.34923 -4.51944 23269 ft 392 kts 77°
2026-04-24 21:31 55.35546 -4.47272 23265 ft 392 kts 77°
2026-04-24 21:31 55.36167 -4.42599 23281 ft 392 kts 77°
2026-04-24 21:32 55.36787 -4.37925 23268 ft 392 kts 76°
2026-04-24 21:32 55.37407 -4.33252 23270 ft 392 kts 76°
2026-04-24 21:32 55.38023 -4.28579 23266 ft 393 kts 76°
2026-04-24 21:32 55.38637 -4.23900 23270 ft 393 kts 77°
2026-04-24 21:33 55.39250 -4.19215 23265 ft 392 kts 77°
2026-04-24 21:33 55.39657 -4.16110 23171 ft 395 kts 77°
2026-04-24 21:33 55.40478 -4.09813 22057 ft 387 kts 77°
2026-04-24 21:33 55.41063 -4.05298 21498 ft 367 kts 77°
2026-04-24 21:34 55.41616 -4.01019 20909 ft 351 kts 77°
2026-04-24 21:34 55.42142 -3.96931 20373 ft 338 kts 77°
2026-04-24 21:34 55.42660 -3.92899 19839 ft 337 kts 77°
2026-04-24 21:34 55.43177 -3.88861 19299 ft 340 kts 77°
2026-04-24 21:35 55.43698 -3.84788 18764 ft 342 kts 77°
2026-04-24 21:35 55.44215 -3.80744 18179 ft 343 kts 76°
2026-04-24 21:35 55.44737 -3.76650 17632 ft 343 kts 76°
2026-04-24 21:35 55.45259 -3.72553 17089 ft 342 kts 76°
2026-04-24 21:36 55.45778 -3.68465 16577 ft 342 kts 76°
2026-04-24 21:36 55.46294 -3.64376 16046 ft 341 kts 76°
2026-04-24 21:36 55.46806 -3.60290 15524 ft 341 kts 76°
2026-04-24 21:36 55.47313 -3.56226 14983 ft 340 kts 75°
2026-04-24 21:37 55.47891 -3.52184 14455 ft 338 kts 66°
2026-04-24 21:37 55.49071 -3.48657 13906 ft 332 kts 46°
2026-04-24 21:37 55.50841 -3.46124 13375 ft 325 kts 26°
2026-04-24 21:37 55.52939 -3.44817 12813 ft 319 kts
2026-04-24 21:38 55.55148 -3.44799 12182 ft 318 kts 349°
2026-04-24 21:38 55.57225 -3.46068 11551 ft 317 kts 330°
2026-04-24 21:38 55.59006 -3.48374 10913 ft 318 kts 321°
2026-04-24 21:38 55.60717 -3.50860 10347 ft 317 kts 321°
2026-04-24 21:39 55.62375 -3.53276 10258 ft 300 kts 321°
2026-04-24 21:39 55.63950 -3.55569 9884 ft 293 kts 321°
2026-04-24 21:39 55.65512 -3.57938 9277 ft 295 kts 319°
2026-04-24 21:39 55.67026 -3.60359 8778 ft 288 kts 317°
2026-04-24 21:40 55.68455 -3.62691 8307 ft 271 kts 317°
2026-04-24 21:40 55.69816 -3.64876 7859 ft 257 kts 319°
2026-04-24 21:40 55.71144 -3.66868 7444 ft 244 kts 321°
2026-04-24 21:40 55.72425 -3.68730 7048 ft 233 kts 321°
2026-04-24 21:41 55.73665 -3.70514 6485 ft 232 kts 321°
2026-04-24 21:41 55.74913 -3.72309 5997 ft 228 kts 321°
2026-04-24 21:41 55.76098 -3.74118 5602 ft 221 kts 317°
2026-04-24 21:41 55.77204 -3.75974 5258 ft 214 kts 322°
2026-04-24 21:42 55.78469 -3.77104 5184 ft 196 kts 346°
2026-04-24 21:42 55.79762 -3.77267 5119 ft 180 kts
2026-04-24 21:42 55.80915 -3.76654 4996 ft 170 kts 26°
2026-04-24 21:42 55.81862 -3.75413 4839 ft 170 kts 46°
2026-04-24 21:43 55.82542 -3.73689 4641 ft 170 kts 57°
2026-04-24 21:43 55.83158 -3.71897 4407 ft 169 kts 58°
2026-04-24 21:43 55.83772 -3.70111 4182 ft 169 kts 58°
2026-04-24 21:43 55.84383 -3.68335 3957 ft 168 kts 57°
2026-04-24 21:44 55.84984 -3.66586 3749 ft 161 kts 58°
2026-04-24 21:44 55.85544 -3.64953 3534 ft 149 kts 58°
2026-04-24 21:44 55.86071 -3.63418 3338 ft 142 kts 57°
2026-04-24 21:44 55.86581 -3.61929 3150 ft 140 kts 57°
2026-04-24 21:45 55.87089 -3.60449 2964 ft 140 kts 58°
2026-04-24 21:45 55.87596 -3.58968 2785 ft 140 kts 57°
2026-04-24 21:45 55.88102 -3.57490 2583 ft 140 kts 58°
2026-04-24 21:45 55.88611 -3.56003 2399 ft 140 kts 58°
2026-04-24 21:46 55.89108 -3.54548 2211 ft 140 kts 58°
2026-04-24 21:46 55.89621 -3.53047 2030 ft 140 kts 58°
2026-04-24 21:46 55.90119 -3.51590 1836 ft 139 kts 58°
2026-04-24 21:46 55.90622 -3.50114 1654 ft 139 kts 58°
2026-04-24 21:47 55.91123 -3.48644 1460 ft 138 kts 58°
2026-04-24 21:47 55.91454 -3.47674 1334 ft 138 kts 59°
2026-04-24 21:47 55.92114 -3.45737 1081 ft 135 kts 59°
2026-04-24 21:47 55.92596 -3.44320 894 ft 132 kts 59°
2026-04-24 21:48 55.93067 -3.42938 710 ft 129 kts 59°
2026-04-24 21:48 55.93530 -3.41575 533 ft 128 kts 60°
2026-04-24 21:48 55.93989 -3.40226 367 ft 127 kts 59°
2026-04-24 21:48 55.94443 -3.38887 203 ft 125 kts 59°
2026-04-24 21:49 55.94875 -3.37575 111 ft 112 kts 60°
2026-04-24 21:49 55.95202 -3.36627 114 ft 66 kts 59°
2026-04-24 21:49 55.95379 -3.36110 109 ft 43 kts 58°
2026-04-24 21:49 55.95505 -3.35744 114 ft 30 kts 58°
2026-04-24 21:50 55.95555 -3.35525 113 ft 15 kts 110°
2026-04-24 21:50 55.95484 -3.35425 113 ft 8 kts 149°
2026-04-24 21:50 55.95427 -3.35427 115 ft 9 kts 221°
2026-04-24 21:50 55.95390 -3.35527 115 ft 10 kts 240°
2026-04-24 21:51 55.95354 -3.35634 115 ft 10 kts 239°
2026-04-24 21:51 55.95315 -3.35748 112 ft 11 kts 237°
2026-04-24 21:51 55.95275 -3.35867 113 ft 11 kts 240°
2026-04-24 21:51 55.95228 -3.35980 115 ft 11 kts 210°
2026-04-24 21:52 55.95164 -3.35945 116 ft 10 kts 148°
2026-04-24 21:52 55.95118 -3.35861 113 ft 10 kts 121°
2026-04-24 21:52 55.95067 -3.35786 116 ft 10 kts 186°
2026-04-24 21:52 55.95004 -3.35841 115 ft 10 kts 207°
2026-04-24 21:53 55.94940 -3.35853 117 ft 9 kts 153°
2026-04-24 21:53 55.94916 -3.35887 115 ft 0 kts 239°
2026-04-24 21:53 55.94914 -3.35893 115 ft 1 kts 239°
2026-04-24 21:53 55.94904 -3.35939 115 ft 6 kts 255°
2026-04-24 21:54 55.94897 -3.35985 113 ft 2 kts 254°
2026-04-24 21:54 55.94895 -3.35998 113 ft 1 kts 254°
2026-04-24 21:54 55.94894 -3.36003 114 ft 0 kts 254°
2026-04-24 22:02 55.94894 -3.36002 117 ft 0 kts 254°